TAP1861 LPPT-LPPD

Flight info

Callsign TAP1861
Flight time 2h 7m
Altitude 37000
Route ZIFOG DCT TABAX DCT KOMUT/M078F380 DCT 38N020W DCT BEKUN DCT OMOBI
Aircraft A320/M-SDE3FGHIRWY/LB1

Departure

Time 2026-04-29 12:29
Airport Lisbon Humberto Delgado Airport (LPPT)

Arrival

Time 2026-04-29 14:36
Airport João Paulo II Airport (LPPD)
Time Latitude Longitude Altitude Speed Heading
2026-04-29 11:54 38.76719 -9.13955 344 ft 0 kts 78°
2026-04-29 12:16 38.76716 -9.13968 342 ft 3 kts 79°
2026-04-29 12:17 38.76713 -9.13994 360 ft 3 kts 85°
2026-04-29 12:17 38.76712 -9.14019 350 ft 3 kts 95°
2026-04-29 12:17 38.76716 -9.14044 343 ft 3 kts 118°
2026-04-29 12:17 38.76727 -9.14060 349 ft 1 kts 167°
2026-04-29 12:18 38.76728 -9.14060 348 ft 0 kts 168°
2026-04-29 12:20 38.76718 -9.14058 353 ft 3 kts 168°
2026-04-29 12:20 38.76680 -9.14048 343 ft 8 kts 168°
2026-04-29 12:20 38.76622 -9.14063 351 ft 11 kts 215°
2026-04-29 12:20 38.76568 -9.14073 344 ft 8 kts 128°
2026-04-29 12:21 38.76571 -9.13998 346 ft 11 kts 81°
2026-04-29 12:21 38.76591 -9.13876 351 ft 16 kts 78°
2026-04-29 12:21 38.76615 -9.13732 346 ft 17 kts 77°
2026-04-29 12:21 38.76639 -9.13579 345 ft 19 kts 79°
2026-04-29 12:22 38.76682 -9.13438 354 ft 16 kts 39°
2026-04-29 12:22 38.76780 -9.13366 351 ft 16 kts
2026-04-29 12:22 38.76888 -9.13394 346 ft 16 kts 345°
2026-04-29 12:22 38.76993 -9.13421 351 ft 15 kts 347°
2026-04-29 12:23 38.77093 -9.13449 353 ft 14 kts 347°
2026-04-29 12:23 38.77187 -9.13474 346 ft 14 kts 348°
2026-04-29 12:23 38.77280 -9.13499 351 ft 14 kts 349°
2026-04-29 12:23 38.77390 -9.13527 351 ft 18 kts 347°
2026-04-29 12:24 38.77484 -9.13553 349 ft 10 kts 348°
2026-04-29 12:24 38.77539 -9.13567 350 ft 9 kts 348°
2026-04-29 12:24 38.77627 -9.13590 354 ft 11 kts 348°
2026-04-29 12:24 38.77719 -9.13584 360 ft 8 kts 22°
2026-04-29 12:25 38.77802 -9.13540 357 ft 12 kts 23°
2026-04-29 12:25 38.77883 -9.13496 358 ft 17 kts 23°
2026-04-29 12:25 38.78054 -9.13408 364 ft 10 kts 22°
2026-04-29 12:26 38.78109 -9.13376 362 ft 8 kts 27°
2026-04-29 12:26 38.78158 -9.13349 358 ft 7 kts 23°
2026-04-29 12:26 38.78186 -9.13334 360 ft 6 kts 21°
2026-04-29 12:26 38.78236 -9.13308 360 ft 10 kts 22°
2026-04-29 12:27 38.78349 -9.13249 364 ft 16 kts 22°
2026-04-29 12:27 38.78425 -9.13220 360 ft 17 kts
2026-04-29 12:27 38.78512 -9.13245 365 ft 8 kts 328°
2026-04-29 12:27 38.78535 -9.13279 363 ft 8 kts 294°
2026-04-29 12:28 38.78552 -9.13364 361 ft 10 kts 239°
2026-04-29 12:28 38.78526 -9.13382 361 ft 1 kts 201°
2026-04-29 12:28 38.78404 -9.13447 365 ft 52 kts 202°
2026-04-29 12:28 38.77855 -9.13741 365 ft 117 kts 203°
2026-04-29 12:29 38.76964 -9.14222 580 ft 146 kts 204°
2026-04-29 12:29 38.76090 -9.14734 1466 ft 136 kts 207°
2026-04-29 12:29 38.75209 -9.15288 2040 ft 147 kts 206°
2026-04-29 12:29 38.74251 -9.15801 2618 ft 153 kts 204°
2026-04-29 12:30 38.73253 -9.16311 3310 ft 155 kts 204°
2026-04-29 12:30 38.72366 -9.17088 3932 ft 158 kts 233°
2026-04-29 12:30 38.72019 -9.18399 4565 ft 161 kts 264°
2026-04-29 12:30 38.71924 -9.19829 5208 ft 162 kts 261°
2026-04-29 12:31 38.71779 -9.21270 5846 ft 164 kts 260°
2026-04-29 12:31 38.71626 -9.22726 6468 ft 165 kts 260°
2026-04-29 12:31 38.71472 -9.24187 7059 ft 166 kts 261°
2026-04-29 12:31 38.71319 -9.25660 7674 ft 167 kts 261°
2026-04-29 12:32 38.71167 -9.27147 8267 ft 169 kts 261°
2026-04-29 12:32 38.71015 -9.28641 8876 ft 171 kts 262°
2026-04-29 12:32 38.70862 -9.30157 9507 ft 172 kts 261°
2026-04-29 12:32 38.70709 -9.31684 10064 ft 174 kts 262°
2026-04-29 12:33 38.70555 -9.33234 10612 ft 176 kts 262°
2026-04-29 12:33 38.70395 -9.34817 11015 ft 187 kts 262°
2026-04-29 12:33 38.70220 -9.36572 11233 ft 210 kts 262°
2026-04-29 12:33 38.70024 -9.38524 11425 ft 233 kts 262°
2026-04-29 12:34 38.69806 -9.40685 11709 ft 258 kts 262°
2026-04-29 12:34 38.69567 -9.43071 12060 ft 282 kts 263°
2026-04-29 12:34 38.69307 -9.45665 12390 ft 306 kts 263°
2026-04-29 12:34 38.69030 -9.48461 12804 ft 324 kts 263°
2026-04-29 12:35 38.68740 -9.51358 13545 ft 331 kts 263°
2026-04-29 12:35 38.68443 -9.54301 14271 ft 335 kts 263°
2026-04-29 12:35 38.68139 -9.57283 15003 ft 339 kts 263°
2026-04-29 12:35 38.67833 -9.60281 15737 ft 343 kts 263°
2026-04-29 12:36 38.67521 -9.63328 16486 ft 346 kts 263°
2026-04-29 12:36 38.67209 -9.66396 17233 ft 349 kts 263°
2026-04-29 12:36 38.66894 -9.69504 17986 ft 353 kts 263°
2026-04-29 12:36 38.66576 -9.72618 18656 ft 355 kts 263°
2026-04-29 12:37 38.66250 -9.75770 19327 ft 357 kts 263°
2026-04-29 12:37 38.65921 -9.78924 20002 ft 358 kts 263°
2026-04-29 12:37 38.65592 -9.82085 20675 ft 359 kts 263°
2026-04-29 12:37 38.65260 -9.85254 21316 ft 361 kts 263°
2026-04-29 12:38 38.64926 -9.88450 21977 ft 363 kts 263°
2026-04-29 12:38 38.64592 -9.91656 22633 ft 364 kts 263°
2026-04-29 12:38 38.64262 -9.94828 23252 ft 366 kts 263°
2026-04-29 12:38 38.63922 -9.98108 23810 ft 368 kts 263°
2026-04-29 12:39 38.63583 -10.01352 24319 ft 370 kts 263°
2026-04-29 12:39 38.63245 -10.04571 24817 ft 371 kts 263°
2026-04-29 12:39 38.62899 -10.07855 25314 ft 373 kts 263°
2026-04-29 12:39 38.62544 -10.11190 25812 ft 375 kts 263°
2026-04-29 12:40 38.62197 -10.14451 26299 ft 376 kts 263°
2026-04-29 12:40 38.61841 -10.17783 26781 ft 378 kts 263°
2026-04-29 12:40 38.61485 -10.21105 27261 ft 379 kts 263°
2026-04-29 12:40 38.61123 -10.24464 27744 ft 381 kts 263°
2026-04-29 12:41 38.60760 -10.27828 28214 ft 383 kts 263°
2026-04-29 12:41 38.60395 -10.31213 28689 ft 384 kts 263°
2026-04-29 12:41 38.60030 -10.34601 29162 ft 386 kts 263°
2026-04-29 12:41 38.59663 -10.38002 29621 ft 387 kts 263°
2026-04-29 12:42 38.59294 -10.41409 30035 ft 388 kts 263°
2026-04-29 12:42 38.58919 -10.44846 30374 ft 390 kts 263°
2026-04-29 12:42 38.58542 -10.48286 30688 ft 393 kts 263°
2026-04-29 12:42 38.58162 -10.51759 30994 ft 395 kts 263°
2026-04-29 12:43 38.57784 -10.55201 31295 ft 398 kts 263°
2026-04-29 12:43 38.57393 -10.58754 31648 ft 398 kts 263°
2026-04-29 12:43 38.57009 -10.62211 32082 ft 398 kts 263°
2026-04-29 12:43 38.56619 -10.65745 32512 ft 397 kts 263°
2026-04-29 12:44 38.56238 -10.69186 32920 ft 397 kts 263°
2026-04-29 12:44 38.55846 -10.72682 33330 ft 396 kts 263°
2026-04-29 12:44 38.55454 -10.76163 33741 ft 396 kts 263°
2026-04-29 12:44 38.55058 -10.79688 34114 ft 396 kts 263°
2026-04-29 12:45 38.54672 -10.83125 34439 ft 396 kts 263°
2026-04-29 12:45 38.54280 -10.86610 34759 ft 397 kts 263°
2026-04-29 12:45 38.53881 -10.90141 35065 ft 397 kts 263°
2026-04-29 12:45 38.53490 -10.93598 35381 ft 398 kts 263°
2026-04-29 12:46 38.53092 -10.97102 35677 ft 399 kts 263°
2026-04-29 12:46 38.52693 -11.00604 35970 ft 399 kts 263°
2026-04-29 12:46 38.52290 -11.04121 36259 ft 400 kts 263°
2026-04-29 12:46 38.51888 -11.07624 36537 ft 400 kts 263°
2026-04-29 12:47 38.51483 -11.11149 36798 ft 401 kts 263°
2026-04-29 12:47 38.50672 -11.18201 36892 ft 400 kts 263°
2026-04-29 12:48 38.49858 -11.25210 36892 ft 399 kts 263°
2026-04-29 12:48 38.49041 -11.32208 36895 ft 398 kts 263°
2026-04-29 12:49 38.48230 -11.39182 36894 ft 397 kts 263°
2026-04-29 12:49 38.47413 -11.46118 36895 ft 397 kts 263°
2026-04-29 12:50 38.46586 -11.53061 36894 ft 397 kts 263°
2026-04-29 12:50 38.45750 -11.60053 36897 ft 397 kts 263°
2026-04-29 12:51 38.44920 -11.67018 36895 ft 397 kts 263°
2026-04-29 12:51 38.44088 -11.73987 36897 ft 397 kts 263°
2026-04-29 12:52 38.43243 -11.80941 36892 ft 396 kts 263°
2026-04-29 12:52 38.42396 -11.87887 36892 ft 396 kts 263°
2026-04-29 12:53 38.41550 -11.94824 36891 ft 396 kts 263°
2026-04-29 12:53 38.40695 -12.01781 36894 ft 396 kts 263°
2026-04-29 12:54 38.39837 -12.08716 36895 ft 396 kts 263°
2026-04-29 12:54 38.38980 -12.15655 36894 ft 396 kts 263°
2026-04-29 12:55 38.38112 -12.22608 36894 ft 396 kts 262°
2026-04-29 12:55 38.37240 -12.29543 36889 ft 396 kts 262°
2026-04-29 12:56 38.36370 -12.36463 36891 ft 396 kts 262°
2026-04-29 12:56 38.35496 -12.43399 36893 ft 396 kts 262°
2026-04-29 12:57 38.34618 -12.50282 36898 ft 396 kts 262°
2026-04-29 12:57 38.33727 -12.57251 36898 ft 396 kts 262°
2026-04-29 12:58 38.32851 -12.64125 36898 ft 396 kts 262°
2026-04-29 12:58 38.31958 -12.71058 36894 ft 396 kts 262°
2026-04-29 12:59 38.31060 -12.77956 36903 ft 395 kts 262°
2026-04-29 12:59 38.30159 -12.84862 36891 ft 395 kts 262°
2026-04-29 13:00 38.29257 -12.91772 36890 ft 395 kts 262°
2026-04-29 13:00 38.28351 -12.98672 36896 ft 395 kts 262°
2026-04-29 13:01 38.27440 -13.05572 36896 ft 395 kts 262°
2026-04-29 13:01 38.26532 -13.12471 36904 ft 396 kts 262°
2026-04-29 13:02 38.25614 -13.19336 36905 ft 396 kts 262°
2026-04-29 13:02 38.24682 -13.26282 36914 ft 396 kts 262°
2026-04-29 13:03 38.23753 -13.33183 36913 ft 396 kts 262°
2026-04-29 13:03 38.22826 -13.40035 36919 ft 395 kts 262°
2026-04-29 13:04 38.21885 -13.46961 36914 ft 395 kts 262°
2026-04-29 13:04 38.20949 -13.53800 36917 ft 395 kts 262°
2026-04-29 13:05 38.20008 -13.60685 36924 ft 395 kts 262°
2026-04-29 13:05 38.19057 -13.67550 36925 ft 395 kts 262°
2026-04-29 13:06 38.18108 -13.74436 36920 ft 395 kts 262°
2026-04-29 13:06 38.17163 -13.81298 36926 ft 395 kts 262°
2026-04-29 13:07 38.16204 -13.88179 36923 ft 395 kts 262°
2026-04-29 13:07 38.15234 -13.95048 36921 ft 395 kts 261°
2026-04-29 13:08 38.14267 -14.01917 36925 ft 395 kts 261°
2026-04-29 13:08 38.13300 -14.08789 36930 ft 395 kts 261°
2026-04-29 13:09 38.12328 -14.15650 36924 ft 395 kts 261°
2026-04-29 13:09 38.11344 -14.22506 36925 ft 395 kts 261°
2026-04-29 13:10 38.10527 -14.28208 36922 ft 394 kts 261°
2026-04-29 13:10 38.09544 -14.35059 36919 ft 394 kts 261°
2026-04-29 13:11 38.08554 -14.41892 36920 ft 394 kts 261°
2026-04-29 13:11 38.07561 -14.48736 36920 ft 394 kts 261°
2026-04-29 13:12 38.06559 -14.55592 36918 ft 394 kts 261°
2026-04-29 13:12 38.05564 -14.62435 36921 ft 394 kts 261°
2026-04-29 13:13 38.04568 -14.69280 36920 ft 394 kts 261°
2026-04-29 13:13 38.03564 -14.76114 36925 ft 394 kts 261°
2026-04-29 13:14 38.02548 -14.82956 36922 ft 394 kts 261°
2026-04-29 13:14 38.01527 -14.89791 36920 ft 394 kts 261°
2026-04-29 13:15 38.00504 -14.96621 36921 ft 394 kts 261°
2026-04-29 13:15 38.00067 -15.03508 36917 ft 393 kts 272°
2026-04-29 13:16 38.00221 -15.10447 36921 ft 393 kts 271°
2026-04-29 13:16 38.00361 -15.17377 36922 ft 394 kts 271°
2026-04-29 13:17 38.00495 -15.24319 36919 ft 394 kts 271°
2026-04-29 13:17 38.00622 -15.31256 36918 ft 394 kts 271°
2026-04-29 13:18 38.00753 -15.38200 36918 ft 394 kts 271°
2026-04-29 13:18 38.00874 -15.45150 36915 ft 394 kts 271°
2026-04-29 13:19 38.00994 -15.52062 36919 ft 394 kts 271°
2026-04-29 13:19 38.01107 -15.59013 36918 ft 395 kts 271°
2026-04-29 13:20 38.01217 -15.65969 36919 ft 395 kts 271°
2026-04-29 13:20 38.01326 -15.72936 36919 ft 395 kts 271°
2026-04-29 13:21 38.01427 -15.79906 36921 ft 396 kts 271°
2026-04-29 13:21 38.01526 -15.86883 36921 ft 396 kts 270°
2026-04-29 13:22 38.01614 -15.93868 36920 ft 396 kts 270°
2026-04-29 13:22 38.01702 -16.00868 36923 ft 397 kts 270°
2026-04-29 13:23 38.01788 -16.07865 36924 ft 397 kts 270°
2026-04-29 13:23 38.01879 -16.14871 36927 ft 397 kts 270°
2026-04-29 13:24 38.01962 -16.21885 36929 ft 398 kts 270°
2026-04-29 13:24 38.02037 -16.28904 36934 ft 398 kts 270°
2026-04-29 13:25 38.02105 -16.35922 36934 ft 399 kts 270°
2026-04-29 13:25 38.02201 -16.46478 36935 ft 399 kts 270°
2026-04-29 13:26 38.02256 -16.53520 36935 ft 399 kts 270°
2026-04-29 13:26 38.02309 -16.60557 36936 ft 400 kts 270°
2026-04-29 13:27 38.02361 -16.67611 36935 ft 400 kts 270°
2026-04-29 13:27 38.02412 -16.74668 36939 ft 400 kts 270°
2026-04-29 13:28 38.02455 -16.81725 36934 ft 401 kts 270°
2026-04-29 13:28 38.02492 -16.88791 36934 ft 401 kts 269°
2026-04-29 13:29 38.02526 -16.95869 36936 ft 401 kts 269°
2026-04-29 13:29 38.02559 -17.02899 36930 ft 401 kts 269°
2026-04-29 13:30 38.02587 -17.09983 36935 ft 402 kts 269°
2026-04-29 13:30 38.02609 -17.17067 36930 ft 402 kts 269°
2026-04-29 13:31 38.02618 -17.24171 36929 ft 403 kts 269°
2026-04-29 13:31 38.02632 -17.31274 36931 ft 403 kts 269°
2026-04-29 13:32 38.02647 -17.38380 36930 ft 403 kts 269°
2026-04-29 13:32 38.02651 -17.45489 36930 ft 403 kts 269°
2026-04-29 13:33 38.02649 -17.52603 36930 ft 404 kts 269°
2026-04-29 13:33 38.02641 -17.59732 36925 ft 404 kts 269°
2026-04-29 13:34 38.02636 -17.66866 36927 ft 405 kts 268°
2026-04-29 13:34 38.02625 -17.74013 36931 ft 405 kts 268°
2026-04-29 13:35 38.02609 -17.81172 36932 ft 406 kts 268°
2026-04-29 13:35 38.02593 -17.88330 36936 ft 406 kts 268°
2026-04-29 13:36 38.02565 -17.95505 36935 ft 406 kts 268°
2026-04-29 13:36 38.02534 -18.02664 36939 ft 407 kts 268°
2026-04-29 13:37 38.02503 -18.09799 36939 ft 407 kts 268°
2026-04-29 13:37 38.02461 -18.17028 36944 ft 407 kts 268°
2026-04-29 13:38 38.02426 -18.24166 36944 ft 408 kts 268°
2026-04-29 13:38 38.02381 -18.31361 36943 ft 408 kts 268°
2026-04-29 13:39 38.02323 -18.38556 36941 ft 408 kts 267°
2026-04-29 13:39 38.02258 -18.45753 36943 ft 408 kts 267°
2026-04-29 13:40 38.02194 -18.52948 36943 ft 408 kts 267°
2026-04-29 13:40 38.02130 -18.60146 36940 ft 408 kts 267°
2026-04-29 13:41 38.02063 -18.67349 36941 ft 408 kts 267°
2026-04-29 13:41 38.01996 -18.74562 36942 ft 409 kts 267°
2026-04-29 13:42 38.01925 -18.81757 36943 ft 409 kts 267°
2026-04-29 13:42 38.01843 -18.88937 36941 ft 409 kts 267°
2026-04-29 13:43 38.01748 -18.96155 36943 ft 410 kts 266°
2026-04-29 13:43 38.01651 -19.03384 36949 ft 410 kts 266°
2026-04-29 13:44 38.01551 -19.10616 36947 ft 410 kts 266°
2026-04-29 13:44 38.01447 -19.17856 36945 ft 410 kts 266°
2026-04-29 13:45 38.01348 -19.25082 36945 ft 410 kts 266°
2026-04-29 13:45 38.01242 -19.32328 36946 ft 411 kts 266°
2026-04-29 13:46 38.01126 -19.39570 36950 ft 411 kts 266°
2026-04-29 13:46 38.01006 -19.46828 36949 ft 412 kts 266°
2026-04-29 13:47 38.00879 -19.54088 36950 ft 412 kts 266°
2026-04-29 13:47 38.00751 -19.61352 36949 ft 412 kts 266°
2026-04-29 13:48 38.00621 -19.68608 36949 ft 412 kts 265°
2026-04-29 13:48 38.00486 -19.75883 36944 ft 412 kts 265°
2026-04-29 13:49 38.00346 -19.83122 36946 ft 413 kts 265°
2026-04-29 13:49 38.00202 -19.90437 36940 ft 413 kts 265°
2026-04-29 13:50 38.00053 -19.97714 36941 ft 413 kts 265°
2026-04-29 13:50 37.99941 -20.04957 36936 ft 414 kts 266°
2026-04-29 13:51 37.99934 -20.12259 36937 ft 415 kts 266°
2026-04-29 13:51 37.99938 -20.19573 36933 ft 415 kts 266°
2026-04-29 13:52 37.99916 -20.26896 36929 ft 415 kts 266°
2026-04-29 13:52 37.99883 -20.32985 36928 ft 416 kts 266°
2026-04-29 13:53 37.99844 -20.40325 36926 ft 416 kts 266°
2026-04-29 13:53 37.99800 -20.47666 36929 ft 417 kts 266°
2026-04-29 13:54 37.99753 -20.55015 36928 ft 417 kts 266°
2026-04-29 13:54 37.99699 -20.62375 36930 ft 417 kts 266°
2026-04-29 13:55 37.99639 -20.69733 36923 ft 418 kts 266°
2026-04-29 13:55 37.99577 -20.77104 36922 ft 418 kts 265°
2026-04-29 13:56 37.99510 -20.84479 36922 ft 419 kts 265°
2026-04-29 13:56 37.99442 -20.91862 36926 ft 419 kts 265°
2026-04-29 13:57 37.99369 -20.99252 36926 ft 419 kts 265°
2026-04-29 13:57 37.99286 -21.06639 36912 ft 419 kts 265°
2026-04-29 13:58 37.99198 -21.14017 36920 ft 419 kts 265°
2026-04-29 13:58 37.99107 -21.21415 36914 ft 419 kts 265°
2026-04-29 13:59 37.99008 -21.28806 36906 ft 419 kts 265°
2026-04-29 13:59 37.98906 -21.36153 36909 ft 420 kts 265°
2026-04-29 14:00 37.98799 -21.43557 36908 ft 420 kts 265°
2026-04-29 14:00 37.98692 -21.50967 36909 ft 420 kts 265°
2026-04-29 14:01 37.98584 -21.58374 36906 ft 420 kts 264°
2026-04-29 14:01 37.98430 -21.65785 36900 ft 420 kts 263°
2026-04-29 14:02 37.97990 -21.73159 36901 ft 419 kts 260°
2026-04-29 14:02 37.97409 -21.80516 36902 ft 420 kts 260°
2026-04-29 14:03 37.96852 -21.87871 36899 ft 420 kts 260°
2026-04-29 14:03 37.96303 -21.95241 36883 ft 418 kts 255°
2026-04-29 14:04 37.94808 -22.02287 36876 ft 414 kts 249°
2026-04-29 14:04 37.93181 -22.09307 36878 ft 416 kts 249°
2026-04-29 14:05 37.91548 -22.16342 36872 ft 417 kts 249°
2026-04-29 14:05 37.89912 -22.23396 36868 ft 417 kts 249°
2026-04-29 14:06 37.88279 -22.30443 36870 ft 418 kts 249°
2026-04-29 14:06 37.86654 -22.37456 36867 ft 418 kts 249°
2026-04-29 14:07 37.85020 -22.44520 36868 ft 418 kts 249°
2026-04-29 14:07 37.83387 -22.51586 36863 ft 418 kts 249°
2026-04-29 14:08 37.81759 -22.58641 36859 ft 418 kts 249°
2026-04-29 14:08 37.80125 -22.65720 36857 ft 419 kts 249°
2026-04-29 14:09 37.78493 -22.72793 36852 ft 419 kts 249°
2026-04-29 14:09 37.77400 -22.76170 36848 ft 411 kts 236°
2026-04-29 14:09 37.75889 -22.79230 36840 ft 410 kts 233°
2026-04-29 14:10 37.72768 -22.85271 36842 ft 411 kts 233°
2026-04-29 14:10 37.69640 -22.91313 36839 ft 412 kts 233°
2026-04-29 14:11 37.66503 -22.97365 36831 ft 412 kts 233°
2026-04-29 14:11 37.63363 -23.03424 36834 ft 412 kts 233°
2026-04-29 14:12 37.60221 -23.09486 36833 ft 414 kts 233°
2026-04-29 14:12 37.57069 -23.15560 36823 ft 413 kts 233°
2026-04-29 14:13 37.53930 -23.21614 36821 ft 413 kts 233°
2026-04-29 14:13 37.50783 -23.27680 36822 ft 414 kts 233°
2026-04-29 14:14 37.47626 -23.33760 36818 ft 414 kts 233°
2026-04-29 14:14 37.45258 -23.40388 35890 ft 434 kts 258°
2026-04-29 14:15 37.45329 -23.44253 35103 ft 448 kts 273°
2026-04-29 14:15 37.45798 -23.48139 34216 ft 453 kts 272°
2026-04-29 14:15 37.46256 -23.52033 33282 ft 457 kts 272°
2026-04-29 14:15 37.46710 -23.55993 32614 ft 453 kts 272°
2026-04-29 14:16 37.47153 -23.59904 31994 ft 449 kts 272°
2026-04-29 14:16 37.47587 -23.63769 31369 ft 445 kts 272°
2026-04-29 14:16 37.48019 -23.67624 30748 ft 442 kts 272°
2026-04-29 14:16 37.48447 -23.71441 30132 ft 439 kts 272°
2026-04-29 14:17 37.48873 -23.75235 29472 ft 436 kts 272°
2026-04-29 14:17 37.49290 -23.78993 28873 ft 432 kts 271°
2026-04-29 14:17 37.49704 -23.82722 28289 ft 427 kts 271°
2026-04-29 14:17 37.50110 -23.86408 27705 ft 422 kts 271°
2026-04-29 14:18 37.50509 -23.90054 27125 ft 418 kts 271°
2026-04-29 14:18 37.50903 -23.93654 26578 ft 414 kts 271°
2026-04-29 14:18 37.51296 -23.97237 26022 ft 410 kts 271°
2026-04-29 14:18 37.51682 -24.00779 25493 ft 406 kts 271°
2026-04-29 14:19 37.52064 -24.04286 24966 ft 402 kts 271°
2026-04-29 14:19 37.52440 -24.07753 24466 ft 399 kts 271°
2026-04-29 14:19 37.52813 -24.11208 23964 ft 395 kts 271°
2026-04-29 14:19 37.53180 -24.14626 23467 ft 392 kts 271°
2026-04-29 14:20 37.53544 -24.18015 22921 ft 389 kts 271°
2026-04-29 14:20 37.53905 -24.21363 22445 ft 384 kts 270°
2026-04-29 14:20 37.54261 -24.24683 21972 ft 380 kts 270°
2026-04-29 14:20 37.54609 -24.27972 21495 ft 377 kts 270°
2026-04-29 14:21 37.54952 -24.31238 21014 ft 375 kts 270°
2026-04-29 14:21 37.55295 -24.34486 20523 ft 373 kts 270°
2026-04-29 14:21 37.55631 -24.37677 20041 ft 371 kts 270°
2026-04-29 14:21 37.55971 -24.40907 19547 ft 370 kts 270°
2026-04-29 14:22 37.56309 -24.44109 19052 ft 370 kts 270°
2026-04-29 14:22 37.56648 -24.47311 18551 ft 369 kts 270°
2026-04-29 14:22 37.56987 -24.50531 18038 ft 369 kts 270°
2026-04-29 14:22 37.57324 -24.53744 17495 ft 368 kts 270°
2026-04-29 14:23 37.57655 -24.56923 17004 ft 365 kts 270°
2026-04-29 14:23 37.57988 -24.60100 16518 ft 363 kts 270°
2026-04-29 14:23 37.58315 -24.63238 16027 ft 361 kts 270°
2026-04-29 14:23 37.58639 -24.66362 15557 ft 359 kts 271°
2026-04-29 14:24 37.58961 -24.69482 15080 ft 357 kts 271°
2026-04-29 14:24 37.59277 -24.72538 14610 ft 355 kts 271°
2026-04-29 14:24 37.59593 -24.75610 14139 ft 353 kts 271°
2026-04-29 14:24 37.59905 -24.78670 13663 ft 351 kts 271°
2026-04-29 14:25 37.60216 -24.81743 13192 ft 346 kts 271°
2026-04-29 14:25 37.60515 -24.84677 12823 ft 340 kts 272°
2026-04-29 14:25 37.60814 -24.87617 12365 ft 336 kts 272°
2026-04-29 14:25 37.61108 -24.90526 11892 ft 333 kts 272°
2026-04-29 14:26 37.61398 -24.93410 11422 ft 330 kts 272°
2026-04-29 14:26 37.61683 -24.96263 10945 ft 327 kts 272°
2026-04-29 14:26 37.61968 -24.99118 10469 ft 324 kts 273°
2026-04-29 14:26 37.62247 -25.01917 10219 ft 315 kts 273°
2026-04-29 14:27 37.62517 -25.04598 10095 ft 302 kts 273°
2026-04-29 14:27 37.62776 -25.07160 9974 ft 290 kts 272°
2026-04-29 14:27 37.63027 -25.09659 9651 ft 285 kts 273°
2026-04-29 14:28 37.63513 -25.14596 8839 ft 281 kts 273°
2026-04-29 14:28 37.63752 -25.17029 8436 ft 278 kts 273°
2026-04-29 14:28 37.63989 -25.19457 7978 ft 278 kts 273°
2026-04-29 14:28 37.64226 -25.21872 7541 ft 276 kts 274°
2026-04-29 14:29 37.64436 -25.24030 7143 ft 274 kts 274°
2026-04-29 14:29 37.64668 -25.26423 6436 ft 271 kts 274°
2026-04-29 14:29 37.64896 -25.28775 5708 ft 268 kts 274°
2026-04-29 14:29 37.65119 -25.31061 5007 ft 264 kts 274°
2026-04-29 14:30 37.65338 -25.33293 4687 ft 249 kts 275°
2026-04-29 14:30 37.65546 -25.35403 4549 ft 236 kts 274°
2026-04-29 14:30 37.65743 -25.37401 4416 ft 224 kts 274°
2026-04-29 14:30 37.65927 -25.39306 4285 ft 213 kts 274°
2026-04-29 14:31 37.66103 -25.41123 4156 ft 205 kts 275°
2026-04-29 14:31 37.66275 -25.42897 4026 ft 202 kts 275°
2026-04-29 14:31 37.66453 -25.44668 3894 ft 203 kts 278°
2026-04-29 14:31 37.66829 -25.46365 3803 ft 197 kts 286°
2026-04-29 14:32 37.67306 -25.47968 3625 ft 193 kts 288°
2026-04-29 14:32 37.67800 -25.49543 3413 ft 193 kts 288°
2026-04-29 14:32 37.68300 -25.51122 3153 ft 194 kts 289°
2026-04-29 14:32 37.68806 -25.52716 2889 ft 195 kts 289°
2026-04-29 14:33 37.69310 -25.54305 2626 ft 195 kts 288°
2026-04-29 14:33 37.69801 -25.55850 2381 ft 184 kts 288°
2026-04-29 14:33 37.70263 -25.57308 2136 ft 172 kts 287°
2026-04-29 14:33 37.70691 -25.58658 1900 ft 161 kts 287°
2026-04-29 14:34 37.71098 -25.59945 1702 ft 155 kts 287°
2026-04-29 14:34 37.71479 -25.61146 1502 ft 139 kts 287°
2026-04-29 14:34 37.71827 -25.62248 1300 ft 131 kts 287°
2026-04-29 14:34 37.72156 -25.63290 1120 ft 128 kts 287°
2026-04-29 14:35 37.72483 -25.64330 949 ft 127 kts 287°
2026-04-29 14:35 37.72828 -25.65358 763 ft 127 kts 288°
2026-04-29 14:35 37.73155 -25.66385 618 ft 127 kts 288°
2026-04-29 14:35 37.73455 -25.67431 452 ft 127 kts 290°
2026-04-29 14:36 37.73791 -25.68461 249 ft 124 kts 286°
2026-04-29 14:36 37.74084 -25.69410 221 ft 101 kts 292°
2026-04-29 14:36 37.74290 -25.70056 240 ft 66 kts 293°
2026-04-29 14:36 37.74437 -25.70520 260 ft 44 kts 292°
2026-04-29 14:37 37.74491 -25.70688 265 ft 17 kts 292°
2026-04-29 14:37 37.74504 -25.70729 267 ft 16 kts 292°
2026-04-29 14:38 37.74536 -25.70826 269 ft 16 kts 293°
2026-04-29 14:39 37.74608 -25.70839 272 ft 5 kts 20°
2026-04-29 14:39 37.74646 -25.70834 272 ft 8 kts
2026-04-29 14:39 37.74718 -25.70845 274 ft 12 kts 306°
2026-04-29 14:39 37.74743 -25.70923 272 ft 9 kts 292°
2026-04-29 14:40 37.74771 -25.71009 276 ft 12 kts 292°
2026-04-29 14:40 37.74807 -25.71124 272 ft 13 kts 292°
2026-04-29 14:40 37.74839 -25.71223 272 ft 8 kts 291°
2026-04-29 14:40 37.74882 -25.71232 272 ft 3 kts 26°
2026-04-29 14:41 37.74901 -25.71220 272 ft 1 kts 21°
2026-04-29 14:41 37.74909 -25.71217 272 ft 0 kts 21°